Regional Weather Roundup
Issued by NWS

Home | Current Version | Previous Version | Graphics & Text | Print | Product List | Glossary On
Versions: 1 2 3 4 5 6 7 8 9 10 11 12 13 14 15 16 17 18 19 20 21 22 23 24 25 26 27 28 29 30 31 32 33 34 35 36 37 38 39 40 41 42 43 44 45 46 47 48 49
000
ASUS45 KBOU 162310
RWRCO

WEATHER ROUNDUP FOR COLORADO
NATIONAL WEATHER SERVICE DENVER/BOULDER CO
400 PM MST FRI FEB 16 2018

NOTE: "FAIR" INDICATES FEW OR NO CLOUDS BELOW 12000 FEET WITH NO
SIGNIFICANT WEATHER AND/OR OBSTRUCTIONS TO VISIBILITY.

COZ001>005-013-030-031-170000-
...NORTHWEST COLORADO...

CITY           SKY/WX    TMP DP  RH WIND       PRES   REMARKS
CRAIG          FAIR      29  12  49 E5        30.05F WCI  24
HAYDEN         CLOUDY    20  13  74 CALM      30.05F
MEEKER         FAIR      37  11  34 SW20      30.03F
RANGELY        FAIR      42  11  28 W9        30.04F
RABBIT EARS PA CLOUDY    18  14  86 SW7       29.95F WCI   8
STEAMBOAT SPGS CLOUDY    26  11  54 CALM      30.02F
WALDEN         FAIR      28  10  47 SW13      29.96F WCI  18
$$

COZ006>008-011-170000-
...WEST CENTRAL VALLEYS...

CITY           SKY/WX    TMP DP  RH WIND       PRES   REMARKS
GRAND JUNCTION FAIR      38  19  46 NW7       30.13F
MONTROSE       FAIR      40  18  41 NW3       30.14F
EAGLE          FAIR      37  14  38 SW16      30.05F
RIFLE          FAIR      36  19  50 W7        30.10F
DELTA          FAIR      45  19  34 S5        30.13F
NUCLA          FAIR      41  18  38 CALM      30.16F
$$

COZ017>023-064>068-170000-
...SOUTHWEST COLORADO...

CITY           SKY/WX    TMP DP  RH WIND       PRES   REMARKS
DURANGO        FAIR      41  22  46 W5        30.11F
CORTEZ         FAIR      43  18  36 SW8       30.13F
PAGOSA SPRINGS FAIR      37  18  45 S6        30.13F
TELLURIDE      FAIR      31  18  58 W9        30.12S WCI  23
WOLF CREEK PAS CLOUDY    14  14 100 S14G21    30.15F WCI  -1
$$

COZ009-010-012-014-032>034-037-058>063-170000-
...CENTRAL COLORADO...

CITY           SKY/WX    TMP DP  RH WIND       PRES   REMARKS
ASPEN          FAIR      29  16  58 CALM      30.04F
BUENA VISTA    FAIR      40  -8  12 W15G25    29.98R
COPPER MTN     CLOUDY    23   3  42 W3        30.02S
BERTHOUD PASS  FAIR      14   3  62 W43G56    29.91S HAZE    WCI -10
COTTONWOOD PAS FAIR      36 -11  13 W22G38    29.98S
GUNNISON       FAIR      33  15  47 SW5       30.09F WCI  29
GRANBY         FAIR      28   9  46 NE6       29.99F WCI  21
KREMMLING      FAIR      41  10  28 SW12      30.00F
LEADVILLE      FAIR      27   0  31 NW9G16    30.00S WCI  18
MONARCH PASS   FAIR      16   1  53 SW26G39   30.16F WCI  -3
SALIDA         FAIR      44  -2  15 S16G30    30.07S
SUNLIGHT       FAIR      19  16  86 SW13G24     N/A  WCI   7
WILKERSON PASS FAIR      30  -8  19 SW14G24   30.00S WCI  20
$$

COZ069>075-170000-
...SAN LUIS VALLEY/SANGRE DE CRISTO MOUNTAINS...

CITY           SKY/WX    TMP DP  RH WIND       PRES   REMARKS
ALAMOSA        FAIR      44  13  28 S20G26    30.03F
DEL NORTE      FAIR      38  13  35 CALM      30.05F
LA VETA PASS   FAIR      30  16  55 S30G47    30.10F WCI  15
SAGUACHE       FAIR      37  12  35 SW8       30.06F
$$

COZ035-036-038>040-170000-
...NORTHERN COLORADO FRONT RANGE...

CITY           SKY/WX    TMP DP  RH WIND       PRES   REMARKS
DENVER INTL AP PTSUNNY   40  22  48 E3        29.88F
AURORA         PTSUNNY   40  24  52 CALM      29.89F
FRONT RANGE AP NOT AVBL
ERIE MUNI ARPT FAIR      40  17  38 SE6       29.94F
BOULDER MUN AP FAIR      41  18  38 NE7       29.87F
CENTENNIAL     PTSUNNY   39  25  57 SE9       29.88F
BROOMFIELD     PTSUNNY   37  18  44 E3        29.89F
FORT COLLINS   FAIR      41  16  36 E5        29.88F
LONGMONT       FAIR      43  16  32 E6        29.90F
$$

COZ041-046-047-076>085-087-088-170000-
...PIKES PEAK/PALMER DIVIDE AND SOUTHERN FOOTHILLS...

CITY           SKY/WX    TMP DP  RH WIND       PRES   REMARKS
COLO. SPRINGS  CLOUDY    33  28  81 SE7       29.95F WCI  27
A. F. ACADEMY  CLOUDY    30  26  85 SE9       29.93F WCI  22
SCHRIEVER AFB  FAIR      32  28  83 S5        29.95F WCI  27
CHEYENNE MTN   PTSUNNY   29  25  84 SE7       29.87F WCI  22
ELLICOTT         N/A      1  32 100 S8        29.93F WCI -13
FALCON         CLOUDY    29  28  96 S7        29.95F WCI  22
FORT CARSON    FAIR      36  28  72 S9        29.94F
LIMON          FAIR      37  19  48 S18G28    29.94F
MONUMENT HILL  FAIR      28  23  80 S16       29.91F WCI  17
CANON CITY     SUNNY     39  28  65 SW3       29.95F
WALSENBURG     NOT AVBL
TRINIDAD       FAIR      51  19  28 VRB5      29.93F
$$

COZ042>045-048>051-090-091-170000-
...NORTHEAST COLORADO...

CITY           SKY/WX    TMP DP  RH WIND       PRES   REMARKS
GREELEY ARPT   FAIR      41  20  43 SE7       29.89F
AKRON          FAIR      39  23  52 S18G32    29.92F
BURLINGTON     FAIR      38  14  37 S22G38    30.00F
WRAY           FAIR      43  18  36 S21G28    30.00F
YUMA           NOT AVBL
STERLING       FAIR      43  27  52 S20G26    29.90F
HOLYOKE        FAIR      45  25  45 S23G32    29.96F
FORT MORGAN    FAIR      41  19  41 S10       29.90F
$$

COZ086-089-092>099-170000-
...SOUTHEAST COLORADO...

CITY           SKY/WX    TMP DP  RH WIND       PRES   REMARKS
PUEBLO         FAIR      44  27  51 NW7       29.94F
LA JUNTA       FAIR      50  21  32 S15       29.94F
LAMAR          FAIR      46  16  30 S20G32    29.99F
SPRINGFIELD      N/A     39  20  46 S29G35    30.03F
$$




USA.gov is the U.S. government's official web portal to all federal, state and local government web resources and services.